Tracking 31027 objects as of 19-Jul-2025
HD Live streaming from Space Station
objects crossing your sky now

STARLINK-11529

Track STARLINK-11529 now!
10-day predictions
STARLINK-11529 is classified as:


NORAD ID: 62599
Int'l Code: 2025-008N
Perigee: 362.5 km
Apogee: 364.7 km
Inclination: 43.0 °
Period: 91.7 minutes
Semi major axis: 6734 km
RCS: Unknown
Launch date: January 13, 2025
Source: United States (US)
Launch site: AIR FORCE EASTERN TEST RANGE (AFETR)
Your satellite tracking list
FENGYUN 1C DEB
Track 1 satellite(s)




NASA's NSSDC Master Catalog

Two Line Element Set (TLE):
1 62599U 25008N   25199.66668981 -.00066762  00000-0 -52062-3 0  9999
2 62599  43.0002  96.7661 0001682 261.5952 276.7078 15.70855196  5957
Source of the keplerian elements: AFSPC